Regional Weather Roundup
Issued by NWS

Home | Current Version | Previous Version | Graphics & Text | Print | Product List | Glossary On
Versions: 1 2 3 4 5 6 7 8 9 10 11 12 13 14 15 16 17 18 19 20 21 22 23 24 25 26 27 28 29 30 31 32 33 34 35 36 37 38 39 40 41 42 43 44 45 46 47 48 49 50
000
ASUS43 KBIS 082010
RWRND

NORTH DAKOTA REGIONAL WEATHER ROUNDUP
NATIONAL WEATHER SERVICE BISMARCK ND
200 PM CST THU DEC 08 2016

NOTE: "FAIR" INDICATES FEW OR NO CLOUDS BELOW 12,000 FEET WITH NO
SIGNIFICANT WEATHER AND/OR OBSTRUCTIONS TO VISIBILITY.


NDZ001>003-009>011-017-082100-
NORTHWEST NORTH DAKOTA

CITY           SKY/WX    TMP DP  RH WIND       PRES   REMARKS
WILLISTON      SUNNY     -2 -10  69 NW10      30.64F WCI -19
MINOT          MOSUNNY    1  -6  72 W15       30.60F WCI -18
MINOT AFB      SUNNY     -1  -7  74 NW18      30.59F WCI -22
$$

NDZ018>021-031>035-040>046-082100-
SOUTHWEST NORTH DAKOTA

CITY           SKY/WX    TMP DP  RH WIND       PRES   REMARKS
BISMARCK       CLOUDY     4  -2  76 NW13      30.63S WCI -13
GARRISON         N/A      2  -5  72 NW16      30.59F WCI -18
HETTINGER ARPT CLOUDY     1  -5  75 NW15      30.56F WCI -18
$$

NDZ004>008-012>016-024-026-027-054-082100-
NORTHEAST NORTH DAKOTA

CITY           SKY/WX    TMP DP  RH WIND       PRES   REMARKS
GRAND FORKS    LGT SNOW  16   9  74 NW20      30.54S WCI  -1
GRND FRKS AFB  FLURRIES  14   8  76 N13       30.54S WCI  -1
DEVILS LAKE    FLURRIES   4  -1  80 W16       30.55S WCI -15
$$

NDZ022-023-025-028>030-036>039-047>053-082100-
SOUTHEAST NORTH DAKOTA

CITY           SKY/WX    TMP DP  RH WIND       PRES   REMARKS
FARGO          LGT SNOW  16  10  77 NW17      30.54R VSB 1   WCI   0
$$





USA.gov is the U.S. government's official web portal to all federal, state and local government web resources and services.